| time (UTC) | temp F | wind direction | speed MPH | gust MPH | rain 1hr in | rain 24hr in | rain mn in | humidity % | barometer mb |
| 20260506164942 | 50 | 253 | 7.0 | 9.0 | 0.00 | 0.00 | 0.00 | 53 | 1016.5 |
| 20260506164439 | 50 | 258 | 7.0 | 10.0 | 0.00 | 0.00 | 0.00 | 53 | 1016.5 |
| 20260506163937 | 49 | 287 | 7.0 | 12.0 | 0.00 | 0.00 | 0.00 | 54 | 1016.7 |
| 20260506163431 | 48 | 244 | 8.0 | 12.0 | 0.00 | 0.00 | 0.00 | 56 | 1016.5 |
| 20260506162927 | 48 | 247 | 10.0 | 14.0 | 0.00 | 0.00 | 0.00 | 55 | 1016.3 |
| 20260506162425 | 48 | 266 | 9.0 | 15.0 | 0.00 | 0.00 | 0.00 | 56 | 1016.8 |
| 20260506161922 | 48 | 293 | 13.0 | 17.0 | 0.00 | 0.00 | 0.00 | 56 | 1016.7 |
| 20260506161420 | 47 | 264 | 7.0 | 10.0 | 0.00 | 0.00 | 0.00 | 58 | 1016.7 |
| 20260506160917 | 47 | 236 | 8.0 | 10.0 | 0.00 | 0.00 | 0.00 | 59 | 1016.5 |
| 20260506160414 | 46 | 266 | 5.0 | 5.0 | 0.00 | 0.00 | 0.00 | 59 | 1016.5 |
| 20260506155912 | 46 | 247 | 7.0 | 10.0 | 0.00 | 0.00 | 0.00 | 59 | 1016.8 |
| 20260506155409 | 46 | 248 | 4.0 | 7.0 | 0.00 | 0.00 | 0.00 | 60 | 1016.4 |
| 20260506153531 | 44 | 290 | 8.0 | 10.0 | 0.00 | 0.00 | 0.00 | 64 | 1016.2 |
| 20260506153028 | 44 | 294 | 7.0 | 14.0 | 0.00 | 0.00 | 0.00 | 64 | 1016.2 |
| 20260506152525 | 44 | 273 | 12.0 | 19.0 | 0.00 | 0.00 | 0.00 | 63 | 1016.2 |
| 20260506152023 | 44 | 261 | 9.0 | 12.0 | 0.00 | 0.00 | 0.00 | 65 | 1016.0 |
| 20260506151521 | 44 | 255 | 12.0 | 17.0 | 0.00 | 0.00 | 0.00 | 65 | 1016.5 |
| 20260506151018 | 43 | 261 | 7.0 | 10.0 | 0.00 | 0.00 | 0.00 | 67 | 1016.5 |
| 20260506150514 | 43 | 213 | 6.0 | 9.0 | 0.00 | 0.00 | 0.00 | 67 | 1016.5 |
| 20260506150011 | 44 | 244 | 6.0 | 10.0 | 0.00 | 0.00 | 0.00 | 67 | 1016.8 |
| 20260506145507 | 43 | 261 | 6.0 | 7.0 | 0.00 | 0.00 | 0.00 | 67 | 1016.9 |
| 20260506145005 | 42 | 251 | 8.0 | 12.0 | 0.00 | 0.00 | 0.00 | 69 | 1016.7 |
| 20260506144502 | 42 | 280 | 7.0 | 9.0 | 0.00 | 0.00 | 0.00 | 69 | 1016.4 |
| 20260506143959 | 42 | 319 | 5.0 | 7.0 | 0.00 | 0.00 | 0.00 | 69 | 1016.5 |
| 20260506143456 | 42 | 302 | 7.0 | 9.0 | 0.00 | 0.00 | 0.00 | 70 | 1016.3 |
| 20260506142955 | 41 | 255 | 8.0 | 12.0 | 0.00 | 0.00 | 0.00 | 70 | 1016.2 |
| 20260506142452 | 41 | 283 | 13.0 | 15.0 | 0.00 | 0.00 | 0.00 | 71 | 1016.0 |
| 20260506141950 | 41 | 274 | 10.0 | 12.0 | 0.00 | 0.00 | 0.00 | 72 | 1016.0 |
| 20260506141448 | 41 | 231 | 12.0 | 15.0 | 0.00 | 0.00 | 0.00 | 72 | 1015.6 |
| 20260506140946 | 41 | 286 | 8.0 | 10.0 | 0.00 | 0.00 | 0.00 | 73 | 1015.9 |
| 20260506140443 | 40 | 302 | 13.0 | 21.0 | 0.00 | 0.00 | 0.00 | 74 | 1015.9 |
| 20260506135939 | 40 | 248 | 13.0 | 19.0 | 0.00 | 0.00 | 0.00 | 75 | 1015.8 |
| 20260506135437 | 40 | 264 | 9.0 | 12.0 | 0.00 | 0.00 | 0.00 | 76 | 1016.0 |
| 20260506134933 | 40 | 253 | 8.0 | 12.0 | 0.00 | 0.00 | 0.00 | 77 | 1015.7 |
| 20260506134429 | 39 | 227 | 9.0 | 14.0 | 0.00 | 0.00 | 0.00 | 78 | 1016.0 |
| 20260506133926 | 39 | 214 | 11.0 | 15.0 | 0.00 | 0.00 | 0.00 | 79 | 1016.0 |
| 20260506133423 | 39 | 265 | 10.0 | 12.0 | 0.00 | 0.00 | 0.00 | 79 | 1016.0 |
| 20260506132920 | 39 | 307 | 8.0 | 12.0 | 0.00 | 0.00 | 0.00 | 80 | 1015.7 |
| 20260506132417 | 38 | 302 | 7.0 | 10.0 | 0.00 | 0.00 | 0.00 | 80 | 1015.7 |
| 20260506131914 | 38 | 316 | 8.0 | 15.0 | 0.00 | 0.00 | 0.00 | 80 | 1016.0 |
| 20260506131410 | 38 | 261 | 10.0 | 17.0 | 0.00 | 0.00 | 0.00 | 82 | 1015.3 |
| 20260506130908 | 38 | 243 | 7.0 | 10.0 | 0.00 | 0.00 | 0.00 | 83 | 1015.7 |
| 20260506130404 | 37 | 252 | 6.0 | 9.0 | 0.00 | 0.00 | 0.00 | 84 | 1015.8 |
| 20260506125902 | 37 | 252 | 4.0 | 5.0 | 0.00 | 0.00 | 0.00 | 84 | 1016.2 |
| 20260506125400 | 37 | 269 | 3.0 | 3.0 | 0.00 | 0.00 | 0.00 | 83 | 1015.8 |
| 20260506124858 | 37 | 278 | 5.0 | 7.0 | 0.00 | 0.00 | 0.00 | 82 | 1015.6 |
| 20260506124355 | 37 | 280 | 8.0 | 10.0 | 0.00 | 0.00 | 0.00 | 83 | 1015.1 |
| 20260506123853 | 37 | 316 | 9.0 | 12.0 | 0.00 | 0.00 | 0.00 | 83 | 1015.1 |
| 20260506123351 | 37 | 241 | 9.0 | 10.0 | 0.00 | 0.00 | 0.00 | 83 | 1015.1 |
| 20260506122848 | 37 | 234 | 7.0 | 14.0 | 0.00 | 0.00 | 0.00 | 84 | 1015.2 |
| 20260506122344 | 36 | 282 | 7.0 | 10.0 | 0.00 | 0.00 | 0.00 | 85 | 1015.2 |
| 20260506121843 | 36 | 252 | 12.0 | 19.0 | 0.00 | 0.00 | 0.00 | 86 | 1015.1 |
| 20260506121340 | 36 | 270 | 7.0 | 10.0 | 0.00 | 0.00 | 0.00 | 86 | 1015.1 |
| 20260506120837 | 36 | 261 | 11.0 | 14.0 | 0.00 | 0.00 | 0.00 | 86 | 1015.1 |
| 20260506120334 | 36 | 260 | 8.0 | 10.0 | 0.00 | 0.00 | 0.00 | 86 | 1015.2 |
| 20260506115831 | 36 | 268 | 13.0 | 22.0 | 0.00 | 0.00 | 0.00 | 86 | 1015.2 |
| 20260506115330 | 36 | 251 | 8.0 | 10.0 | 0.00 | 0.00 | 0.00 | 86 | 1014.9 |
| 20260506114827 | 36 | 270 | 9.0 | 12.0 | 0.00 | 0.00 | 0.00 | 87 | 1015.2 |
| 20260506114325 | 36 | 252 | 7.0 | 9.0 | 0.00 | 0.00 | 0.00 | 87 | 1015.1 |
| 20260506113823 | 35 | 265 | 5.0 | 7.0 | 0.00 | 0.00 | 0.00 | 87 | 1015.3 |
| 20260506113321 | 35 | 267 | 3.0 | 5.0 | 0.00 | 0.00 | 0.00 | 87 | 1015.4 |
| 20260506112817 | 35 | 265 | 6.0 | 7.0 | 0.00 | 0.00 | 0.00 | 87 | 1015.4 |
| 20260506112315 | 36 | 261 | 4.0 | 5.0 | 0.00 | 0.00 | 0.00 | 86 | 1015.4 |
| 20260506111812 | 36 | 250 | 6.0 | 10.0 | 0.00 | 0.00 | 0.00 | 85 | 1015.4 |
| 20260506111310 | 36 | 271 | 6.0 | 7.0 | 0.00 | 0.00 | 0.00 | 85 | 1015.4 |
| 20260506110807 | 36 | 250 | 5.0 | 5.0 | 0.00 | 0.00 | 0.00 | 85 | 1015.2 |
| 20260506110304 | 36 | 273 | 10.0 | 14.0 | 0.00 | 0.00 | 0.00 | 85 | 1015.2 |
| 20260506105800 | 36 | 273 | 7.0 | 9.0 | 0.00 | 0.00 | 0.00 | 86 | 1014.8 |
| 20260506105257 | 36 | 261 | 9.0 | 14.0 | 0.00 | 0.00 | 0.00 | 86 | 1014.8 |
| 20260506104755 | 36 | 336 | 7.0 | 9.0 | 0.00 | 0.00 | 0.00 | 86 | 1014.9 |
| 20260506104253 | 36 | 224 | 6.0 | 9.0 | 0.00 | 0.00 | 0.00 | 86 | 1015.1 |
| 20260506103750 | 36 | 262 | 9.0 | 12.0 | 0.00 | 0.00 | 0.00 | 86 | 1014.8 |
| 20260506103247 | 36 | 278 | 8.0 | 10.0 | 0.00 | 0.00 | 0.00 | 85 | 1014.8 |
| 20260506102744 | 36 | 296 | 6.0 | 10.0 | 0.00 | 0.00 | 0.00 | 85 | 1015.1 |
| 20260506102242 | 36 | 245 | 7.0 | 10.0 | 0.00 | 0.00 | 0.00 | 86 | 1014.8 |
| 20260506101739 | 36 | 312 | 6.0 | 7.0 | 0.00 | 0.00 | 0.00 | 87 | 1014.9 |
| 20260506101235 | 36 | 274 | 7.0 | 9.0 | 0.00 | 0.00 | 0.00 | 87 | 1015.2 |
| 20260506100733 | 36 | 257 | 6.0 | 10.0 | 0.00 | 0.00 | 0.00 | 87 | 1014.9 |
| 20260506100231 | 37 | 285 | 6.0 | 10.0 | 0.00 | 0.00 | 0.00 | 86 | 1014.9 |
| 20260506095730 | 37 | 248 | 8.0 | 10.0 | 0.00 | 0.00 | 0.00 | 85 | 1014.7 |
| 20260506095226 | 37 | 268 | 7.0 | 9.0 | 0.00 | 0.00 | 0.00 | 86 | 1014.8 |
| 20260506094723 | 37 | 246 | 7.0 | 7.0 | 0.00 | 0.00 | 0.00 | 86 | 1014.8 |
| 20260506094221 | 37 | 265 | 6.0 | 9.0 | 0.00 | 0.00 | 0.00 | 86 | 1015.1 |
| 20260506093720 | 37 | 263 | 7.0 | 9.0 | 0.00 | 0.00 | 0.00 | 87 | 1015.1 |
| 20260506093216 | 37 | 299 | 6.0 | 7.0 | 0.00 | 0.00 | 0.00 | 87 | 1014.7 |
| 20260506092714 | 37 | 261 | 5.0 | 7.0 | 0.00 | 0.00 | 0.00 | 88 | 1015.1 |
| 20260506092211 | 37 | 269 | 7.0 | 10.0 | 0.00 | 0.00 | 0.00 | 89 | 1014.9 |
| 20260506091709 | 37 | 251 | 8.0 | 9.0 | 0.00 | 0.00 | 0.00 | 89 | 1014.7 |
| 20260506091206 | 38 | 239 | 9.0 | 12.0 | 0.00 | 0.00 | 0.00 | 88 | 1014.8 |
| 20260506090704 | 38 | 283 | 6.0 | 7.0 | 0.00 | 0.00 | 0.00 | 89 | 1014.8 |
| 20260506090201 | 38 | 270 | 5.0 | 7.0 | 0.00 | 0.00 | 0.00 | 89 | 1014.7 |
| 20260506085658 | 38 | 258 | 6.0 | 7.0 | 0.00 | 0.00 | 0.00 | 88 | 1014.9 |
| 20260506085153 | 38 | 248 | 7.0 | 9.0 | 0.00 | 0.00 | 0.00 | 88 | 1014.8 |
| 20260506084650 | 38 | 259 | 5.0 | 9.0 | 0.00 | 0.00 | 0.00 | 89 | 1014.8 |
| 20260506084147 | 39 | 283 | 8.0 | 12.0 | 0.00 | 0.00 | 0.00 | 88 | 1014.9 |
| 20260506083644 | 39 | 229 | 6.0 | 7.0 | 0.00 | 0.00 | 0.00 | 88 | 1015.2 |
| 20260506083142 | 39 | 223 | 6.0 | 7.0 | 0.00 | 0.00 | 0.00 | 87 | 1014.8 |
| 20260506082638 | 39 | 254 | 3.0 | 3.0 | 0.00 | 0.00 | 0.00 | 85 | 1014.8 |
| 20260506082134 | 39 | 227 | 6.0 | 10.0 | 0.00 | 0.00 | 0.00 | 84 | 1015.1 |
| 20260506081632 | 39 | 251 | 3.0 | 3.0 | 0.00 | 0.00 | 0.00 | 85 | 1015.1 |
| 20260506081130 | 39 | 291 | 3.0 | 3.0 | 0.00 | 0.00 | 0.00 | 85 | 1015.2 |
| 20260506080627 | 39 | 230 | 4.0 | 5.0 | 0.00 | 0.00 | 0.00 | 87 | 1015.2 |
| 20260506080123 | 38 | 268 | 2.0 | 3.0 | 0.00 | 0.00 | 0.00 | 89 | 1015.4 |
| 20260506073107 | 39 | 250 | 3.0 | 3.0 | 0.00 | 0.00 | 0.00 | 90 | 1015.2 |
| 20260506072604 | 40 | 256 | 3.0 | 3.0 | 0.00 | 0.00 | 0.00 | 90 | 1015.6 |
| 20260506072102 | 40 | 244 | 2.0 | 2.0 | 0.00 | 0.00 | 0.00 | 90 | 1015.6 |
| 20260506071559 | 40 | 306 | 3.0 | 3.0 | 0.00 | 0.00 | 0.00 | 90 | 1015.2 |
| 20260506071057 | 40 | 267 | 2.0 | 2.0 | 0.00 | 0.00 | 0.00 | 90 | 1015.3 |
| 20260506070554 | 40 | 257 | 4.0 | 5.0 | 0.00 | 0.00 | 0.00 | 89 | 1015.2 |
| 20260506062028 | 40 | 264 | 2.0 | 3.0 | 0.00 | 0.00 | 0.00 | 93 | 1015.2 |
| 20260506061523 | 40 | 282 | 3.0 | 3.0 | 0.00 | 0.00 | 0.00 | 94 | 1015.3 |
| 20260506061021 | 40 | 264 | 3.0 | 3.0 | 0.00 | 0.00 | 0.00 | 95 | 1015.1 |
| 20260506060520 | 40 | 239 | 2.0 | 3.0 | 0.00 | 0.00 | 0.00 | 96 | 1015.3 |
| 20260506050948 | 40 | 258 | 2.0 | 2.0 | 0.00 | 0.08 | 0.08 | 97 | 1015.3 |
| 20260506050446 | 40 | 263 | 1.0 | 2.0 | 0.00 | 0.08 | 0.08 | 97 | 1015.4 |
| 20260506044936 | 40 | 277 | 2.0 | 2.0 | 0.05 | 0.08 | 0.08 | 96 | 1015.3 |
| 20260506044435 | 40 | 255 | 3.0 | 3.0 | 0.00 | 0.07 | 0.07 | 96 | 1015.2 |
| 20260506043931 | 40 | 239 | 0.0 | 0.0 | 0.00 | 0.07 | 0.07 | 96 | 1015.1 |
| 20260506043429 | 40 | 236 | 0.0 | 0.0 | 0.00 | 0.07 | 0.07 | 95 | 1015.1 |
| 20260506042926 | 40 | 284 | 4.0 | 5.0 | 0.07 | 0.07 | 0.07 | 95 | 1014.9 |
| 20260506042426 | 40 | 260 | 0.0 | 0.0 | 0.14 | 0.07 | 0.07 | 94 | 1014.7 |
| 20260506041923 | 40 | 250 | 3.0 | 5.0 | 0.19 | 0.06 | 0.06 | 93 | 1015.2 |
| 20260506041421 | 40 | 264 | 0.0 | 0.0 | 0.17 | 0.05 | 0.05 | 91 | 1015.2 |
| 20260506040918 | 41 | 262 | 3.0 | 3.0 | 0.05 | 0.03 | 0.03 | 90 | 1015.1 |
| 20260506040415 | 41 | 215 | 2.0 | 3.0 | 0.00 | 0.02 | 0.02 | 88 | 1014.8 |
| 20260506035911 | 42 | 245 | 3.0 | 5.0 | 0.00 | 0.02 | 0.02 | 86 | 1014.6 |
| 20260506035409 | 42 | 169 | 4.0 | 5.0 | 0.00 | 0.02 | 0.02 | 85 | 1014.8 |
| 20260506034905 | 42 | 188 | 3.0 | 5.0 | 0.00 | 0.02 | 0.02 | 85 | 1014.7 |
| 20260506034403 | 42 | 289 | 5.0 | 9.0 | 0.00 | 0.02 | 0.02 | 85 | 1014.4 |
| 20260506033900 | 42 | 231 | 3.0 | 3.0 | 0.00 | 0.02 | 0.02 | 85 | 1014.6 |
| 20260506033357 | 42 | 157 | 2.0 | 2.0 | 0.00 | 0.02 | 0.02 | 84 | 1014.6 |
| 20260506032854 | 42 | 245 | 3.0 | 3.0 | 0.00 | 0.02 | 0.02 | 84 | 1013.9 |
| 20260506032350 | 42 | 31 | 7.0 | 15.0 | 0.00 | 0.02 | 0.02 | 84 | 1013.8 |
| 20260506031847 | 43 | 274 | 5.0 | 9.0 | 0.00 | 0.02 | 0.02 | 84 | 1013.9 |
| 20260506031345 | 43 | 19 | 2.0 | 3.0 | 0.00 | 0.02 | 0.02 | 83 | 1013.4 |
| 20260506030842 | 44 | 227 | 4.0 | 5.0 | 0.00 | 0.02 | 0.02 | 81 | 1013.4 |
| 20260506030340 | 45 | 248 | 5.0 | 9.0 | 0.00 | 0.02 | 0.02 | 78 | 1013.6 |
| 20260506025837 | 45 | 249 | 1.0 | 2.0 | 0.00 | 0.02 | 0.02 | 76 | 1013.4 |
| 20260506025333 | 45 | 315 | 4.0 | 9.0 | 0.00 | 0.02 | 0.02 | 75 | 1013.4 |
| 20260506024830 | 46 | 262 | 0.0 | 2.0 | 0.00 | 0.02 | 0.02 | 74 | 1013.2 |
| 20260506024327 | 46 | 266 | 0.0 | 0.0 | 0.00 | 0.02 | 0.02 | 73 | 1012.9 |
| 20260506023823 | 47 | 266 | 2.0 | 2.0 | 0.00 | 0.02 | 0.02 | 72 | 1013.4 |
| 20260506023320 | 47 | 257 | 2.0 | 3.0 | 0.00 | 0.02 | 0.02 | 72 | 1012.9 |
| 20260506022817 | 47 | 241 | 3.0 | 3.0 | 0.00 | 0.02 | 0.02 | 72 | 1012.9 |
| 20260506022315 | 47 | 259 | 3.0 | 3.0 | 0.00 | 0.02 | 0.02 | 72 | 1012.9 |
| 20260506021813 | 48 | 257 | 3.0 | 3.0 | 0.00 | 0.02 | 0.02 | 71 | 1012.8 |
| 20260506021309 | 48 | 260 | 2.0 | 2.0 | 0.00 | 0.02 | 0.02 | 69 | 1012.7 |
| 20260506020806 | 48 | 261 | 2.0 | 2.0 | 0.00 | 0.02 | 0.02 | 68 | 1012.7 |
| 20260506020304 | 48 | 278 | 3.0 | 5.0 | 0.00 | 0.02 | 0.02 | 68 | 1012.7 |
| 20260506015801 | 48 | 275 | 3.0 | 3.0 | 0.00 | 0.02 | 0.02 | 68 | 1012.4 |
| 20260506015258 | 49 | 257 | 3.0 | 3.0 | 0.00 | 0.02 | 0.02 | 67 | 1012.4 |
| 20260506014755 | 49 | 257 | 1.0 | 2.0 | 0.00 | 0.02 | 0.02 | 66 | 1012.1 |
| 20260506014252 | 49 | 225 | 3.0 | 3.0 | 0.00 | 0.02 | 0.02 | 66 | 1012.6 |
| 20260506013749 | 50 | 235 | 6.0 | 9.0 | 0.00 | 0.02 | 0.02 | 66 | 1012.7 |
| 20260506013246 | 50 | 226 | 4.0 | 5.0 | 0.00 | 0.02 | 0.02 | 65 | 1012.2 |
| 20260506012742 | 50 | 224 | 5.0 | 9.0 | 0.00 | 0.02 | 0.02 | 65 | 1012.3 |
| 20260506012239 | 50 | 240 | 5.0 | 7.0 | 0.00 | 0.02 | 0.02 | 64 | 1012.1 |
| 20260506011737 | 50 | 267 | 3.0 | 3.0 | 0.00 | 0.02 | 0.02 | 63 | 1011.8 |
| 20260506011233 | 50 | 247 | 6.0 | 7.0 | 0.00 | 0.02 | 0.02 | 63 | 1011.8 |
| 20260506010731 | 50 | 281 | 5.0 | 7.0 | 0.00 | 0.02 | 0.02 | 63 | 1012.3 |
| 20260506010228 | 50 | 245 | 5.0 | 9.0 | 0.00 | 0.02 | 0.02 | 63 | 1012.2 |
| 20260506005725 | 49 | 271 | 7.0 | 9.0 | 0.00 | 0.02 | 0.02 | 63 | 1012.1 |
| 20260506005222 | 50 | 251 | 5.0 | 7.0 | 0.00 | 0.02 | 0.02 | 62 | 1011.8 |
| 20260506004718 | 50 | 205 | 5.0 | 7.0 | 0.00 | 0.02 | 0.02 | 61 | 1011.8 |
| 20260506004216 | 50 | 266 | 6.0 | 9.0 | 0.00 | 0.02 | 0.02 | 61 | 1011.9 |
| 20260506003711 | 50 | 270 | 6.0 | 7.0 | 0.00 | 0.02 | 0.02 | 61 | 1012.1 |
| 20260506003208 | 50 | 224 | 6.0 | 9.0 | 0.00 | 0.02 | 0.02 | 60 | 1011.8 |
| 20260506002704 | 50 | 267 | 10.0 | 15.0 | 0.00 | 0.02 | 0.02 | 60 | 1012.1 |
| 20260506002200 | 51 | 253 | 6.0 | 7.0 | 0.00 | 0.02 | 0.02 | 59 | 1011.9 |
| 20260506001656 | 51 | 247 | 5.0 | 7.0 | 0.00 | 0.02 | 0.02 | 59 | 1011.9 |
| 20260506001154 | 51 | 241 | 7.0 | 10.0 | 0.00 | 0.02 | 0.02 | 59 | 1011.8 |
| 20260506000651 | 51 | 257 | 4.0 | 5.0 | 0.00 | 0.02 | 0.02 | 58 | 1011.8 |
| 20260506000148 | 52 | 261 | 4.0 | 7.0 | 0.00 | 0.02 | 0.02 | 56 | 1011.9 |
| 20260505235646 | 53 | 250 | 6.0 | 10.0 | 0.00 | 0.02 | 0.02 | 55 | 1011.8 |
| 20260505235143 | 51 | 268 | 6.0 | 12.0 | 0.00 | 0.02 | 0.02 | 58 | 1011.9 |
| 20260505234640 | 52 | 247 | 7.0 | 9.0 | 0.00 | 0.02 | 0.02 | 58 | 1011.9 |
| 20260505234137 | 53 | 242 | 6.0 | 7.0 | 0.00 | 0.02 | 0.02 | 55 | 1011.9 |
| 20260505233634 | 53 | 270 | 5.0 | 7.0 | 0.00 | 0.02 | 0.02 | 57 | 1011.9 |
| 20260505233131 | 54 | 273 | 7.0 | 9.0 | 0.00 | 0.02 | 0.02 | 57 | 1011.8 |
| 20260505232629 | 54 | 239 | 6.0 | 9.0 | 0.00 | 0.02 | 0.02 | 57 | 1012.1 |
| 20260505232126 | 55 | 282 | 9.0 | 14.0 | 0.00 | 0.02 | 0.02 | 54 | 1011.8 |
| 20260505231623 | 55 | 239 | 6.0 | 10.0 | 0.00 | 0.02 | 0.02 | 55 | 1011.9 |
| 20260505231122 | 53 | 265 | 3.0 | 5.0 | 0.00 | 0.02 | 0.02 | 62 | 1011.9 |
| 20260505230620 | 53 | 256 | 6.0 | 7.0 | 0.00 | 0.02 | 0.02 | 62 | 1012.1 |
| 20260505230115 | 53 | 258 | 7.0 | 9.0 | 0.00 | 0.02 | 0.02 | 63 | 1011.9 |
| 20260505225612 | 52 | 278 | 6.0 | 7.0 | 0.00 | 0.02 | 0.02 | 64 | 1011.8 |
| 20260505225108 | 52 | 222 | 8.0 | 12.0 | 0.00 | 0.02 | 0.02 | 66 | 1012.1 |
| 20260505224605 | 52 | 248 | 7.0 | 10.0 | 0.00 | 0.02 | 0.02 | 65 | 1011.9 |
| 20260505224102 | 49 | 234 | 7.0 | 9.0 | 0.00 | 0.02 | 0.02 | 68 | 1012.3 |
| 20260505223559 | 49 | 264 | 7.0 | 12.0 | 0.00 | 0.02 | 0.02 | 70 | 1012.4 |
| 20260505223055 | 49 | 286 | 7.0 | 10.0 | 0.00 | 0.02 | 0.02 | 72 | 1012.1 |
| 20260505222552 | 50 | 231 | 12.0 | 15.0 | 0.00 | 0.02 | 0.02 | 70 | 1012.3 |
| 20260505222048 | 51 | 292 | 9.0 | 14.0 | 0.00 | 0.02 | 0.02 | 67 | 1012.3 |
| 20260505221546 | 51 | 308 | 11.0 | 14.0 | 0.00 | 0.02 | 0.02 | 66 | 1012.1 |
| 20260505221042 | 53 | 268 | 9.0 | 12.0 | 0.00 | 0.02 | 0.02 | 62 | 1012.3 |
| 20260505220539 | 53 | 278 | 5.0 | 5.0 | 0.00 | 0.02 | 0.02 | 62 | 1012.4 |
| 20260505220037 | 52 | 283 | 8.0 | 9.0 | 0.00 | 0.02 | 0.02 | 66 | 1012.4 |
| 20260505215535 | 52 | 245 | 8.0 | 9.0 | 0.00 | 0.02 | 0.02 | 65 | 1012.6 |
| 20260505215032 | 51 | 269 | 6.0 | 7.0 | 0.00 | 0.02 | 0.02 | 67 | 1012.6 |
| 20260505214530 | 53 | 250 | 6.0 | 9.0 | 0.00 | 0.02 | 0.02 | 66 | 1012.3 |
| 20260505214027 | 53 | 219 | 11.0 | 14.0 | 0.00 | 0.02 | 0.02 | 62 | 1012.2 |
| 20260505213525 | 55 | 266 | 9.0 | 12.0 | 0.00 | 0.02 | 0.02 | 60 | 1012.4 |
| 20260505213021 | 53 | 230 | 5.0 | 5.0 | 0.00 | 0.02 | 0.02 | 62 | 1012.3 |
| 20260505212517 | 53 | 236 | 8.0 | 10.0 | 0.00 | 0.02 | 0.02 | 63 | 1012.4 |
| 20260505212014 | 54 | 223 | 7.0 | 9.0 | 0.00 | 0.02 | 0.02 | 62 | 1012.6 |
| 20260505211512 | 55 | 233 | 13.0 | 17.0 | 0.00 | 0.02 | 0.02 | 60 | 1012.6 |
| 20260505211008 | 53 | 247 | 9.0 | 10.0 | 0.00 | 0.02 | 0.02 | 63 | 1012.6 |
| 20260505210505 | 54 | 253 | 9.0 | 14.0 | 0.00 | 0.02 | 0.02 | 64 | 1012.8 |
| 20260505210002 | 55 | 261 | 8.0 | 10.0 | 0.00 | 0.02 | 0.02 | 61 | 1012.4 |
| 20260505205500 | 55 | 280 | 7.0 | 12.0 | 0.00 | 0.02 | 0.02 | 62 | 1012.6 |
| 20260505204956 | 55 | 254 | 9.0 | 15.0 | 0.00 | 0.02 | 0.02 | 62 | 1012.3 |
| 20260505204455 | 54 | 268 | 10.0 | 15.0 | 0.00 | 0.02 | 0.02 | 64 | 1012.6 |
| 20260505203952 | 54 | 277 | 9.0 | 12.0 | 0.00 | 0.02 | 0.02 | 65 | 1012.3 |
| 20260505203448 | 54 | 337 | 5.0 | 7.0 | 0.00 | 0.02 | 0.02 | 65 | 1012.7 |
| 20260505202944 | 53 | 259 | 8.0 | 10.0 | 0.00 | 0.02 | 0.02 | 67 | 1013.1 |
| 20260505202441 | 53 | 225 | 7.0 | 12.0 | 0.00 | 0.02 | 0.02 | 67 | 1012.9 |
| 20260505201937 | 52 | 265 | 9.0 | 15.0 | 0.00 | 0.02 | 0.02 | 70 | 1012.7 |
| 20260505201434 | 51 | 281 | 9.0 | 12.0 | 0.00 | 0.02 | 0.02 | 74 | 1012.9 |
| 20260505200932 | 51 | 274 | 9.0 | 12.0 | 0.00 | 0.02 | 0.02 | 73 | 1012.9 |
| 20260505200429 | 51 | 277 | 6.0 | 7.0 | 0.00 | 0.02 | 0.02 | 75 | 1012.6 |
| 20260505195925 | 53 | 258 | 8.0 | 10.0 | 0.00 | 0.02 | 0.02 | 72 | 1012.8 |
| 20260505195422 | 52 | 234 | 11.0 | 15.0 | 0.00 | 0.02 | 0.02 | 73 | 1012.7 |
| 20260505194920 | 51 | 279 | 9.0 | 12.0 | 0.00 | 0.02 | 0.02 | 77 | 1013.2 |
| 20260505194417 | 51 | 285 | 10.0 | 14.0 | 0.00 | 0.02 | 0.02 | 81 | 1013.2 |
| 20260505193917 | 49 | 300 | 8.0 | 10.0 | 0.00 | 0.02 | 0.02 | 86 | 1013.1 |
| 20260505193415 | 50 | 230 | 9.0 | 12.0 | 0.00 | 0.02 | 0.02 | 90 | 1012.8 |
| 20260505192912 | 48 | 309 | 8.0 | 12.0 | 0.00 | 0.02 | 0.02 | 93 | 1013.2 |
| 20260505192410 | 49 | 291 | 9.0 | 14.0 | 0.00 | 0.02 | 0.02 | 94 | 1013.4 |
| 20260505191908 | 48 | 300 | 7.0 | 10.0 | 0.00 | 0.02 | 0.02 | 95 | 1013.1 |
| 20260505191406 | 47 | 266 | 7.0 | 9.0 | 0.07 | 0.02 | 0.02 | 94 | 1013.3 |
| 20260505190903 | 47 | 326 | 8.0 | 12.0 | 0.12 | 0.02 | 0.02 | 92 | 1013.3 |
| 20260505190358 | 47 | 268 | 9.0 | 12.0 | 0.05 | 0.01 | 0.01 | 90 | 1013.7 |
| 20260505185853 | 48 | 244 | 7.0 | 12.0 | 0.00 | 0.00 | 0.00 | 83 | 1013.7 |
| 20260505185350 | 53 | 210 | 8.0 | 9.0 | 0.00 | 0.00 | 0.00 | 68 | 1013.3 |
| 20260505184847 | 54 | 254 | 6.0 | 7.0 | 0.00 | 0.00 | 0.00 | 59 | 1013.2 |
| 20260505184344 | 54 | 285 | 11.0 | 12.0 | 0.00 | 0.00 | 0.00 | 58 | 1013.1 |
| 20260505183841 | 54 | 223 | 7.0 | 9.0 | 0.00 | 0.00 | 0.00 | 58 | 1013.3 |
| 20260505183337 | 55 | 257 | 6.0 | 9.0 | 0.00 | 0.00 | 0.00 | 57 | 1013.3 |
| 20260505182834 | 55 | 244 | 11.0 | 15.0 | 0.00 | 0.00 | 0.00 | 57 | 1013.2 |
| 20260505182331 | 54 | 276 | 12.0 | 15.0 | 0.00 | 0.00 | 0.00 | 59 | 1013.1 |
| 20260505181828 | 55 | 260 | 9.0 | 14.0 | 0.00 | 0.00 | 0.00 | 58 | 1013.3 |
| 20260505181325 | 53 | 228 | 5.0 | 7.0 | 0.00 | 0.00 | 0.00 | 62 | 1013.4 |
| 20260505180821 | 53 | 246 | 7.0 | 7.0 | 0.00 | 0.00 | 0.00 | 61 | 1013.7 |
| 20260505180318 | 53 | 252 | 11.0 | 17.0 | 0.00 | 0.00 | 0.00 | 60 | 1013.6 |
| 20260505175814 | 54 | 255 | 7.0 | 9.0 | 0.00 | 0.00 | 0.00 | 59 | 1013.7 |
| 20260505175311 | 53 | 248 | 6.0 | 9.0 | 0.00 | 0.00 | 0.00 | 59 | 1013.7 |
| 20260505174808 | 53 | 306 | 7.0 | 10.0 | 0.00 | 0.00 | 0.00 | 60 | 1013.4 |
| 20260505174305 | 52 | 243 | 6.0 | 7.0 | 0.00 | 0.00 | 0.00 | 60 | 1013.6 |
| 20260505173801 | 54 | 249 | 10.0 | 14.0 | 0.00 | 0.00 | 0.00 | 57 | 1013.7 |
| 20260505173257 | 54 | 242 | 6.0 | 9.0 | 0.00 | 0.00 | 0.00 | 57 | 1013.6 |
| 20260505172754 | 53 | 243 | 2.0 | 3.0 | 0.00 | 0.00 | 0.00 | 59 | 1013.6 |
| 20260505172252 | 53 | 254 | 3.0 | 3.0 | 0.00 | 0.00 | 0.00 | 58 | 1013.8 |
| 20260505171747 | 51 | 235 | 6.0 | 9.0 | 0.00 | 0.00 | 0.00 | 60 | 1013.9 |
| 20260505171244 | 51 | 251 | 8.0 | 12.0 | 0.00 | 0.00 | 0.00 | 62 | 1013.8 |
| 20260505170740 | 51 | 251 | 3.0 | 3.0 | 0.00 | 0.00 | 0.00 | 60 | 1013.8 |
| 20260505170237 | 50 | 239 | 2.0 | 2.0 | 0.00 | 0.00 | 0.00 | 63 | 1013.8 |
| 20260505165732 | 49 | 239 | 1.0 | 2.0 | 0.00 | 0.00 | 0.00 | 64 | 1013.9 |